,,PressureMeas_1m,,PRMeasQMR101_1,,RHStat155_1m_1,,SRMeasQMS101R_1m,,TAStat155_1m_1,,GenWind_1,,GenWind_1,
2019-03-20, 00:00:06,VALID,919.001,VALID,0.0,VALID,99.256,VALID,-0.009,VALID,19.966,VALID,134.0,VALID,0.0,
2019-03-20, 00:01:06,VALID,918.978,VALID,0.0,VALID,99.275,VALID,-0.002,VALID,19.973,VALID,119.0,VALID,0.0,
2019-03-20, 00:02:06,VALID,918.985,VALID,0.0,VALID,99.259,VALID,0.008,VALID,19.949,VALID,118.0,VALID,0.0,
2019-03-20, 00:03:06,VALID,918.978,VALID,0.0,VALID,99.259,VALID,0.006,VALID,19.93,VALID,119.0,VALID,0.0,
2019-03-20, 00:04:06,VALID,918.998,VALID,0.0,VALID,99.276,VALID,-0.001,VALID,19.921,VALID,123.0,VALID,0.0,
2019-03-20, 00:05:06,VALID,918.985,VALID,0.0,VALID,99.258,VALID,-0.003,VALID,19.902,VALID,105.0,VALID,0.0,
2019-03-20, 00:06:06,VALID,918.949,VALID,0.0,VALID,99.272,VALID,0.002,VALID,19.883,VALID,114.0,VALID,0.0,
2019-03-20, 00:07:06,VALID,918.949,VALID,0.0,VALID,99.259,VALID,-0.007,VALID,19.874,VALID,109.0,VALID,0.0,
2019-03-20, 00:08:06,VALID,918.929,VALID,0.0,VALID,99.265,VALID,0.014,VALID,19.875,VALID,111.0,VALID,0.0,
2019-03-20, 00:09:06,VALID,918.91,VALID,0.0,VALID,99.269,VALID,0.012,VALID,19.868,VALID,108.0,VALID,0.0,
2019-03-20, 00:10:06,VALID,918.861,VALID,0.0,VALID,99.247,VALID,0.008,VALID,19.84,VALID,110.0,VALID,0.0,
2019-03-20, 00:11:06,VALID,918.873,VALID,0.0,VALID,99.237,VALID,0.002,VALID,19.817,VALID,117.0,VALID,0.0,
2019-03-20, 00:12:06,VALID,918.855,VALID,0.0,VALID,99.248,VALID,-0.001,VALID,19.794,VALID,119.0,VALID,0.0,
2019-03-20, 00:13:06,VALID,918.853,VALID,0.0,VALID,99.247,VALID,0.006,VALID,19.789,VALID,122.0,VALID,0.0,
2019-03-20, 00:14:06,VALID,918.835,VALID,0.0,VALID,99.238,VALID,0.028,VALID,19.801,VALID,128.0,VALID,0.0,
2019-03-20, 00:15:06,VALID,918.828,VALID,0.0,VALID,99.252,VALID,0.022,VALID,19.839,VALID,131.0,VALID,0.0,
2019-03-20, 00:16:06,VALID,918.819,VALID,0.0,VALID,99.258,VALID,0.031,VALID,19.851,VALID,129.0,VALID,0.0,
2019-03-20, 00:17:06,VALID,918.8,VALID,0.0,VALID,99.257,VALID,0.014,VALID,19.873,VALID,133.0,VALID,0.0,
2019-03-20, 00:18:06,VALID,918.806,VALID,0.0,VALID,99.27,VALID,0.034,VALID,19.889,VALID,122.0,VALID,0.0,
2019-03-20, 00:19:06,VALID,918.785,VALID,0.0,VALID,99.237,VALID,0.037,VALID,19.895,VALID,137.0,VALID,0.0,
2019-03-20, 00:20:06,VALID,918.794,VALID,0.0,VALID,99.243,VALID,0.025,VALID,19.908,VALID,135.0,VALID,0.0,
2019-03-20, 00:21:06,VALID,918.778,VALID,0.0,VALID,99.252,VALID,0.039,VALID,19.922,VALID,129.0,VALID,0.0,
2019-03-20, 00:22:06,VALID,918.779,VALID,0.0,VALID,99.259,VALID,0.028,VALID,19.933,VALID,123.0,VALID,0.0,
2019-03-20, 00:23:06,VALID,918.753,VALID,0.0,VALID,99.237,VALID,0.019,VALID,19.928,VALID,150.0,VALID,0.0,
2019-03-20, 00:24:06,VALID,918.761,VALID,0.0,VALID,99.234,VALID,0.023,VALID,19.926,VALID,135.0,VALID,0.0,
2019-03-20, 00:25:06,VALID,918.765,VALID,0.0,VALID,99.228,VALID,0.033,VALID,19.921,VALID,147.0,VALID,0.0,
2019-03-20, 00:26:06,VALID,918.759,VALID,0.0,VALID,99.232,VALID,0.025,VALID,19.923,VALID,131.0,VALID,0.0,
2019-03-20, 00:27:06,VALID,918.758,VALID,0.0,VALID,99.226,VALID,0.023,VALID,19.907,VALID,134.0,VALID,0.0,
2019-03-20, 00:28:06,VALID,918.755,VALID,0.0,VALID,99.236,VALID,0.02,VALID,19.909,VALID,133.0,VALID,0.0,
2019-03-20, 00:29:06,VALID,918.739,VALID,0.0,VALID,99.226,VALID,0.057,VALID,19.907,VALID,142.0,VALID,0.0,
2019-03-20, 00:30:06,VALID,918.73,VALID,0.0,VALID,99.226,VALID,0.06,VALID,19.915,VALID,148.0,VALID,0.0,
2019-03-20, 00:31:06,VALID,918.694,VALID,0.0,VALID,99.229,VALID,0.059,VALID,19.907,VALID,146.0,VALID,0.0,
2019-03-20, 00:32:06,VALID,918.675,VALID,0.0,VALID,99.22,VALID,0.066,VALID,19.889,VALID,144.0,VALID,0.0,
2019-03-20, 00:33:06,VALID,918.641,VALID,0.0,VALID,99.193,VALID,0.048,VALID,19.891,VALID,146.0,VALID,0.0,
2019-03-20, 00:34:06,VALID,918.612,VALID,0.0,VALID,99.207,VALID,0.036,VALID,19.884,VALID,162.0,VALID,0.0,
2019-03-20, 00:35:06,VALID,918.575,VALID,0.0,VALID,99.199,VALID,0.044,VALID,19.879,VALID,112.0,VALID,0.0,
2019-03-20, 00:36:06,VALID,918.551,VALID,0.0,VALID,99.207,VALID,0.036,VALID,19.892,VALID,103.0,VALID,0.0,
2019-03-20, 00:37:06,VALID,918.539,VALID,0.0,VALID,99.211,VALID,0.058,VALID,19.903,VALID,97.0,VALID,0.0,
2019-03-20, 00:38:06,VALID,918.523,VALID,0.0,VALID,99.211,VALID,0.065,VALID,19.886,VALID,132.0,VALID,0.0,
2019-03-20, 00:39:06,VALID,918.501,VALID,0.0,VALID,99.173,VALID,0.048,VALID,19.863,VALID,126.0,VALID,0.0,
2019-03-20, 00:40:06,VALID,918.485,VALID,0.0,VALID,99.163,VALID,0.069,VALID,19.824,VALID,127.0,VALID,0.0,
2019-03-20, 00:41:06,VALID,918.445,VALID,0.0,VALID,99.129,VALID,0.036,VALID,19.773,VALID,115.0,VALID,0.0,
2019-03-20, 00:42:06,VALID,918.446,VALID,0.0,VALID,99.108,VALID,0.045,VALID,19.712,VALID,112.0,VALID,0.0,
2019-03-20, 00:43:06,VALID,918.406,VALID,0.0,VALID,99.047,VALID,0.045,VALID,19.658,VALID,116.0,VALID,0.0,
2019-03-20, 00:44:06,VALID,918.386,VALID,0.0,VALID,99.02,VALID,-0.0,VALID,19.656,VALID,114.0,VALID,0.0,
2019-03-20, 00:45:06,VALID,918.363,VALID,0.0,VALID,99.02,VALID,0.017,VALID,19.657,VALID,116.0,VALID,0.0,
2019-03-20, 00:46:06,VALID,918.36,VALID,0.0,VALID,99.017,VALID,0.01,VALID,19.672,VALID,118.0,VALID,0.0,
2019-03-20, 00:47:06,VALID,918.353,VALID,0.0,VALID,98.934,VALID,0.011,VALID,19.665,VALID,118.0,VALID,0.0,
2019-03-20, 00:48:06,VALID,918.346,VALID,0.0,VALID,98.877,VALID,-0.007,VALID,19.671,VALID,116.0,VALID,0.0,
2019-03-20, 00:49:06,VALID,918.326,VALID,0.0,VALID,98.826,VALID,0.005,VALID,19.677,VALID,109.0,VALID,0.0,
2019-03-20, 00:50:06,VALID,918.313,VALID,0.0,VALID,98.783,VALID,0.004,VALID,19.686,VALID,110.0,VALID,0.0,
2019-03-20, 00:51:06,VALID,918.3,VALID,0.0,VALID,98.738,VALID,-0.005,VALID,19.691,VALID,108.0,VALID,0.0,
2019-03-20, 00:52:06,VALID,918.286,VALID,0.0,VALID,98.7,VALID,0.013,VALID,19.701,VALID,109.0,VALID,0.0,
2019-03-20, 00:53:06,VALID,918.272,VALID,0.0,VALID,98.661,VALID,0.004,VALID,19.71,VALID,121.0,VALID,0.0,
2019-03-20, 00:54:06,VALID,918.279,VALID,0.0,VALID,98.671,VALID,-0.002,VALID,19.717,VALID,121.0,VALID,0.0,
2019-03-20, 00:55:06,VALID,918.257,VALID,0.0,VALID,98.639,VALID,0.0,VALID,19.712,VALID,120.0,VALID,0.0,
2019-03-20, 00:56:06,VALID,918.268,VALID,0.0,VALID,98.669,VALID,0.007,VALID,19.731,VALID,206.0,VALID,0.0,
2019-03-20, 00:57:06,VALID,918.25,VALID,0.0,VALID,98.707,VALID,0.002,VALID,19.77,VALID,256.0,VALID,0.0,
2019-03-20, 00:58:06,VALID,918.249,VALID,0.0,VALID,98.731,VALID,0.005,VALID,19.8,VALID,256.0,VALID,0.0,
2019-03-20, 00:59:06,VALID,918.222,VALID,0.0,VALID,98.797,VALID,0.033,VALID,19.825,VALID,256.0,VALID,0.0,
2019-03-20, 01:00:06,VALID,918.191,VALID,0.0,VALID,98.838,VALID,0.034,VALID,19.859,VALID,256.0,VALID,0.0,
2019-03-20, 01:01:06,VALID,918.171,VALID,0.0,VALID,98.786,VALID,0.031,VALID,19.784,VALID,256.0,VALID,0.0,
2019-03-20, 01:02:06,VALID,918.158,VALID,0.0,VALID,98.761,VALID,0.023,VALID,19.715,VALID,256.0,VALID,0.0,
2019-03-20, 01:03:06,VALID,918.148,VALID,0.0,VALID,98.726,VALID,0.018,VALID,19.656,VALID,349.0,VALID,0.0,
2019-03-20, 01:04:06,VALID,918.135,VALID,0.0,VALID,98.67,VALID,0.014,VALID,19.601,VALID,88.0,VALID,0.0,
2019-03-20, 01:05:06,VALID,918.125,VALID,0.0,VALID,98.662,VALID,0.016,VALID,19.553,VALID,100.0,VALID,0.0,
2019-03-20, 01:06:06,VALID,918.133,VALID,0.0,VALID,98.68,VALID,0.013,VALID,19.541,VALID,104.0,VALID,0.0,
2019-03-20, 01:07:06,VALID,918.133,VALID,0.0,VALID,98.694,VALID,0.003,VALID,19.542,VALID,106.0,VALID,0.0,
2019-03-20, 01:08:06,VALID,918.143,VALID,0.0,VALID,98.743,VALID,0.008,VALID,19.58,VALID,110.0,VALID,0.0,
2019-03-20, 01:09:06,VALID,918.152,VALID,0.0,VALID,98.782,VALID,0.009,VALID,19.618,VALID,114.0,VALID,0.0,
2019-03-20, 01:10:06,VALID,918.131,VALID,0.0,VALID,98.673,VALID,0.006,VALID,19.588,VALID,126.0,VALID,0.0,
2019-03-20, 01:11:06,VALID,918.119,VALID,0.0,VALID,98.693,VALID,-0.009,VALID,19.618,VALID,126.0,VALID,0.0,
2019-03-20, 01:12:06,VALID,918.071,VALID,0.0,VALID,98.71,VALID,0.007,VALID,19.637,VALID,114.0,VALID,0.0,
2019-03-20, 01:13:06,VALID,918.079,VALID,0.0,VALID,98.689,VALID,0.003,VALID,19.608,VALID,100.0,VALID,0.0,
2019-03-20, 01:14:06,VALID,918.044,VALID,0.0,VALID,98.718,VALID,0.029,VALID,19.585,VALID,78.0,VALID,0.0,
2019-03-20, 01:15:06,VALID,918.006,VALID,0.0,VALID,98.679,VALID,0.005,VALID,19.535,VALID,70.0,VALID,0.0,
2019-03-20, 01:16:06,VALID,917.981,VALID,0.0,VALID,98.738,VALID,0.004,VALID,19.521,VALID,63.0,VALID,0.0,
2019-03-20, 01:17:06,VALID,917.962,VALID,0.0,VALID,98.752,VALID,-0.002,VALID,19.517,VALID,57.0,VALID,0.0,
2019-03-20, 01:18:06,VALID,917.953,VALID,0.0,VALID,98.788,VALID,0.021,VALID,19.5,VALID,55.0,VALID,0.0,
2019-03-20, 01:19:06,VALID,917.932,VALID,0.0,VALID,98.815,VALID,0.016,VALID,19.505,VALID,55.0,VALID,0.0,
2019-03-20, 01:20:06,VALID,917.905,VALID,0.0,VALID,98.868,VALID,0.024,VALID,19.542,VALID,55.0,VALID,0.0,
2019-03-20, 01:21:06,VALID,917.903,VALID,0.0,VALID,98.92,VALID,0.012,VALID,19.572,VALID,50.0,VALID,0.0,
2019-03-20, 01:22:06,VALID,917.9,VALID,0.0,VALID,98.898,VALID,0.011,VALID,19.556,VALID,47.0,VALID,0.0,
2019-03-20, 01:23:06,VALID,917.891,VALID,0.0,VALID,98.91,VALID,0.004,VALID,19.562,VALID,47.0,VALID,0.0,
2019-03-20, 01:24:06,VALID,917.864,VALID,0.0,VALID,98.938,VALID,0.022,VALID,19.57,VALID,47.0,VALID,0.0,
2019-03-20, 01:25:06,VALID,917.859,VALID,0.0,VALID,98.925,VALID,0.023,VALID,19.549,VALID,70.0,VALID,0.0,
2019-03-20, 01:26:06,VALID,917.844,VALID,0.0,VALID,98.882,VALID,0.013,VALID,19.518,VALID,93.0,VALID,0.0,
2019-03-20, 01:27:06,VALID,917.827,VALID,0.0,VALID,98.917,VALID,0.018,VALID,19.519,VALID,92.0,VALID,0.0,
2019-03-20, 01:28:06,VALID,917.82,VALID,0.0,VALID,98.943,VALID,0.002,VALID,19.524,VALID,78.0,VALID,0.0,
2019-03-20, 01:29:06,VALID,917.788,VALID,0.0,VALID,98.942,VALID,0.002,VALID,19.543,VALID,75.0,VALID,0.0,
2019-03-20, 01:30:06,VALID,917.782,VALID,0.0,VALID,98.937,VALID,0.0,VALID,19.544,VALID,78.0,VALID,0.0,
2019-03-20, 01:31:06,VALID,917.768,VALID,0.0,VALID,98.958,VALID,0.002,VALID,19.556,VALID,76.0,VALID,0.0,
2019-03-20, 01:32:06,VALID,917.777,VALID,0.0,VALID,98.991,VALID,0.02,VALID,19.594,VALID,78.0,VALID,0.0,
2019-03-20, 01:33:06,VALID,917.777,VALID,0.0,VALID,98.986,VALID,-0.001,VALID,19.608,VALID,97.0,VALID,0.0,
2019-03-20, 01:34:06,VALID,917.755,VALID,0.0,VALID,98.985,VALID,0.012,VALID,19.603,VALID,107.0,VALID,0.0,
2019-03-20, 01:35:06,VALID,917.731,VALID,0.0,VALID,98.986,VALID,0.001,VALID,19.574,VALID,107.0,VALID,0.0,
2019-03-20, 01:36:06,VALID,917.719,VALID,0.0,VALID,98.941,VALID,-0.002,VALID,19.525,VALID,110.0,VALID,0.0,
2019-03-20, 01:37:06,VALID,917.684,VALID,0.0,VALID,98.926,VALID,0.003,VALID,19.468,VALID,108.0,VALID,0.0,
2019-03-20, 01:38:06,VALID,917.646,VALID,0.0,VALID,98.892,VALID,-0.012,VALID,19.43,VALID,115.0,VALID,0.0,
2019-03-20, 01:39:06,VALID,917.627,VALID,0.0,VALID,98.909,VALID,-0.007,VALID,19.38,VALID,112.0,VALID,0.0,
2019-03-20, 01:40:06,VALID,917.597,VALID,0.0,VALID,98.879,VALID,0.017,VALID,19.34,VALID,110.0,VALID,0.0,
2019-03-20, 01:41:06,VALID,917.573,VALID,0.0,VALID,98.907,VALID,0.005,VALID,19.33,VALID,113.0,VALID,0.0,
2019-03-20, 01:42:06,VALID,917.529,VALID,0.0,VALID,98.949,VALID,-0.021,VALID,19.355,VALID,108.0,VALID,0.0,
2019-03-20, 01:43:06,VALID,917.517,VALID,0.0,VALID,99.001,VALID,-0.002,VALID,19.363,VALID,104.0,VALID,0.0,
2019-03-20, 01:44:06,VALID,917.493,VALID,0.0,VALID,99.024,VALID,0.038,VALID,19.382,VALID,102.0,VALID,0.0,
2019-03-20, 01:45:06,VALID,917.455,VALID,0.0,VALID,99.041,VALID,0.044,VALID,19.41,VALID,103.0,VALID,0.0,
2019-03-20, 01:46:06,VALID,917.463,VALID,0.0,VALID,99.066,VALID,0.051,VALID,19.439,VALID,103.0,VALID,0.0,
2019-03-20, 01:47:06,VALID,917.452,VALID,0.0,VALID,99.056,VALID,0.046,VALID,19.443,VALID,96.0,VALID,0.0,
2019-03-20, 01:48:06,VALID,917.44,VALID,0.0,VALID,99.075,VALID,0.047,VALID,19.441,VALID,102.0,VALID,0.0,
2019-03-20, 01:49:06,VALID,917.417,VALID,0.0,VALID,99.073,VALID,0.039,VALID,19.424,VALID,121.0,VALID,0.0,
2019-03-20, 01:50:06,VALID,917.408,VALID,0.0,VALID,99.094,VALID,0.042,VALID,19.453,VALID,114.0,VALID,0.0,
2019-03-20, 01:51:06,VALID,917.4,VALID,0.0,VALID,99.099,VALID,0.038,VALID,19.447,VALID,115.0,VALID,0.0,
2019-03-20, 01:52:06,VALID,917.37,VALID,0.0,VALID,99.075,VALID,0.038,VALID,19.389,VALID,112.0,VALID,0.0,
2019-03-20, 01:53:06,VALID,917.368,VALID,0.0,VALID,99.078,VALID,0.042,VALID,19.403,VALID,114.0,VALID,0.0,
2019-03-20, 01:54:06,VALID,917.353,VALID,0.0,VALID,99.146,VALID,0.052,VALID,19.471,VALID,118.0,VALID,0.0,
2019-03-20, 01:55:06,VALID,917.321,VALID,0.0,VALID,99.141,VALID,0.047,VALID,19.469,VALID,124.0,VALID,0.0,
2019-03-20, 01:56:06,VALID,917.356,VALID,0.0,VALID,99.151,VALID,0.059,VALID,19.498,VALID,127.0,VALID,0.0,
2019-03-20, 01:57:06,VALID,917.326,VALID,0.0,VALID,99.166,VALID,0.051,VALID,19.512,VALID,128.0,VALID,0.0,
2019-03-20, 01:58:06,VALID,917.298,VALID,0.0,VALID,99.149,VALID,0.055,VALID,19.527,VALID,127.0,VALID,0.0,
2019-03-20, 01:59:06,VALID,917.32,VALID,0.0,VALID,99.181,VALID,0.01,VALID,19.528,VALID,132.0,VALID,0.0,
2019-03-20, 02:00:06,VALID,917.309,VALID,0.0,VALID,99.157,VALID,0.014,VALID,19.513,VALID,121.0,VALID,0.0,
2019-03-20, 02:01:06,VALID,917.285,VALID,0.0,VALID,99.167,VALID,0.018,VALID,19.516,VALID,132.0,VALID,0.0,
2019-03-20, 02:02:06,VALID,917.263,VALID,0.0,VALID,99.18,VALID,0.011,VALID,19.529,VALID,122.0,VALID,0.0,
2019-03-20, 02:03:06,VALID,917.232,VALID,0.0,VALID,99.167,VALID,0.016,VALID,19.548,VALID,123.0,VALID,0.0,
2019-03-20, 02:04:06,VALID,917.197,VALID,0.0,VALID,99.158,VALID,-0.001,VALID,19.531,VALID,133.0,VALID,0.0,
2019-03-20, 02:05:06,VALID,917.186,VALID,0.0,VALID,99.161,VALID,0.01,VALID,19.513,VALID,132.0,VALID,0.0,
2019-03-20, 02:06:06,VALID,917.176,VALID,0.0,VALID,99.156,VALID,-0.001,VALID,19.481,VALID,122.0,VALID,0.0,
2019-03-20, 02:07:06,VALID,917.171,VALID,0.0,VALID,99.133,VALID,0.009,VALID,19.413,VALID,112.0,VALID,0.0,
2019-03-20, 02:08:06,VALID,917.161,VALID,0.0,VALID,99.13,VALID,0.007,VALID,19.373,VALID,110.0,VALID,0.0,
2019-03-20, 02:09:06,VALID,917.163,VALID,0.0,VALID,99.151,VALID,0.013,VALID,19.385,VALID,113.0,VALID,0.0,
2019-03-20, 02:10:06,VALID,917.164,VALID,0.0,VALID,99.197,VALID,-0.002,VALID,19.437,VALID,118.0,VALID,0.0,
2019-03-20, 02:11:06,VALID,917.159,VALID,0.0,VALID,99.211,VALID,-0.003,VALID,19.462,VALID,119.0,VALID,0.0,
2019-03-20, 02:12:06,VALID,917.157,VALID,0.0,VALID,99.222,VALID,0.013,VALID,19.514,VALID,125.0,VALID,0.0,
2019-03-20, 02:13:06,VALID,917.157,VALID,0.0,VALID,99.228,VALID,0.014,VALID,19.54,VALID,126.0,VALID,0.0,
2019-03-20, 02:14:06,VALID,917.135,VALID,0.0,VALID,99.21,VALID,0.011,VALID,19.55,VALID,128.0,VALID,0.0,
2019-03-20, 02:15:06,VALID,917.136,VALID,0.0,VALID,99.236,VALID,0.014,VALID,19.55,VALID,129.0,VALID,0.0,
2019-03-20, 02:16:06,VALID,917.12,VALID,0.0,VALID,99.191,VALID,0.014,VALID,19.548,VALID,127.0,VALID,0.0,
2019-03-20, 02:17:06,VALID,917.054,VALID,0.0,VALID,99.196,VALID,0.008,VALID,19.557,VALID,129.0,VALID,0.0,
2019-03-20, 02:18:06,VALID,917.067,VALID,0.0,VALID,99.206,VALID,0.01,VALID,19.557,VALID,127.0,VALID,0.0,
2019-03-20, 02:19:06,VALID,917.046,VALID,0.0,VALID,99.197,VALID,0.019,VALID,19.556,VALID,128.0,VALID,0.0,
2019-03-20, 02:20:06,VALID,917.025,VALID,0.0,VALID,99.172,VALID,0.01,VALID,19.532,VALID,120.0,VALID,0.0,
2019-03-20, 02:21:06,VALID,916.996,VALID,0.0,VALID,99.153,VALID,0.019,VALID,19.498,VALID,113.0,VALID,0.0,
2019-03-20, 02:22:06,VALID,916.975,VALID,0.0,VALID,99.17,VALID,0.008,VALID,19.476,VALID,113.0,VALID,0.0,
2019-03-20, 02:23:06,VALID,916.959,VALID,0.0,VALID,99.139,VALID,0.009,VALID,19.434,VALID,107.0,VALID,0.0,
2019-03-20, 02:24:06,VALID,916.949,VALID,0.0,VALID,99.149,VALID,0.025,VALID,19.405,VALID,104.0,VALID,0.0,
2019-03-20, 02:25:06,VALID,916.946,VALID,0.0,VALID,99.141,VALID,0.015,VALID,19.409,VALID,107.0,VALID,0.0,
2019-03-20, 02:26:06,VALID,916.933,VALID,0.0,VALID,99.158,VALID,0.01,VALID,19.397,VALID,109.0,VALID,0.0,
2019-03-20, 02:27:06,VALID,916.933,VALID,0.0,VALID,99.15,VALID,-0.001,VALID,19.404,VALID,114.0,VALID,0.0,
2019-03-20, 02:28:06,VALID,916.928,VALID,0.0,VALID,99.165,VALID,0.013,VALID,19.423,VALID,110.0,VALID,0.0,
2019-03-20, 02:29:06,VALID,916.925,VALID,0.0,VALID,99.153,VALID,0.013,VALID,19.396,VALID,110.0,VALID,0.0,
2019-03-20, 02:30:06,VALID,916.909,VALID,0.0,VALID,99.12,VALID,0.013,VALID,19.359,VALID,113.0,VALID,0.0,
2019-03-20, 02:31:06,VALID,916.892,VALID,0.0,VALID,99.114,VALID,0.004,VALID,19.322,VALID,116.0,VALID,0.0,
2019-03-20, 02:32:06,VALID,916.875,VALID,0.0,VALID,99.125,VALID,-0.002,VALID,19.322,VALID,116.0,VALID,0.0,
2019-03-20, 02:33:06,VALID,916.858,VALID,0.0,VALID,99.155,VALID,0.019,VALID,19.335,VALID,118.0,VALID,0.0,
2019-03-20, 02:34:06,VALID,916.847,VALID,0.0,VALID,99.154,VALID,-0.011,VALID,19.335,VALID,120.0,VALID,0.0,
2019-03-20, 02:35:06,VALID,916.843,VALID,0.0,VALID,99.142,VALID,-0.013,VALID,19.319,VALID,127.0,VALID,0.0,
2019-03-20, 02:36:06,VALID,916.821,VALID,0.0,VALID,99.169,VALID,-0.005,VALID,19.328,VALID,127.0,VALID,0.0,
2019-03-20, 02:37:06,VALID,916.819,VALID,0.0,VALID,99.175,VALID,0.009,VALID,19.328,VALID,128.0,VALID,0.0,
2019-03-20, 02:38:06,VALID,916.797,VALID,0.0,VALID,99.188,VALID,-0.001,VALID,19.302,VALID,119.0,VALID,0.0,
2019-03-20, 02:39:06,VALID,916.788,VALID,0.0,VALID,99.144,VALID,0.008,VALID,19.255,VALID,114.0,VALID,0.0,
2019-03-20, 02:40:06,VALID,916.772,VALID,0.0,VALID,99.147,VALID,0.013,VALID,19.229,VALID,108.0,VALID,0.0,
2019-03-20, 02:41:06,VALID,916.772,VALID,0.0,VALID,99.154,VALID,0.011,VALID,19.21,VALID,105.0,VALID,0.0,
2019-03-20, 02:42:06,VALID,916.767,VALID,0.0,VALID,99.18,VALID,0.019,VALID,19.22,VALID,105.0,VALID,0.0,
2019-03-20, 02:43:06,VALID,916.777,VALID,0.0,VALID,99.196,VALID,0.005,VALID,19.221,VALID,101.0,VALID,0.0,
2019-03-20, 02:44:06,VALID,916.777,VALID,0.0,VALID,99.208,VALID,0.013,VALID,19.227,VALID,107.0,VALID,0.0,
2019-03-20, 02:45:06,VALID,916.798,VALID,0.0,VALID,99.214,VALID,0.015,VALID,19.261,VALID,113.0,VALID,0.0,
2019-03-20, 02:46:06,VALID,916.783,VALID,0.0,VALID,99.231,VALID,0.017,VALID,19.274,VALID,112.0,VALID,0.0,
2019-03-20, 02:47:06,VALID,916.788,VALID,0.0,VALID,99.215,VALID,0.003,VALID,19.278,VALID,116.0,VALID,0.0,
2019-03-20, 02:48:06,VALID,916.759,VALID,0.0,VALID,99.237,VALID,0.013,VALID,19.31,VALID,115.0,VALID,0.0,
2019-03-20, 02:49:06,VALID,916.744,VALID,0.0,VALID,99.223,VALID,-0.007,VALID,19.278,VALID,115.0,VALID,0.0,
2019-03-20, 02:50:06,VALID,916.744,VALID,0.0,VALID,99.225,VALID,0.011,VALID,19.302,VALID,123.0,VALID,0.0,
2019-03-20, 02:51:06,VALID,916.743,VALID,0.0,VALID,99.219,VALID,0.025,VALID,19.319,VALID,117.0,VALID,0.0,
2019-03-20, 02:52:06,VALID,916.738,VALID,0.0,VALID,99.225,VALID,0.017,VALID,19.279,VALID,114.0,VALID,0.0,
2019-03-20, 02:53:06,VALID,916.735,VALID,0.0,VALID,99.231,VALID,0.002,VALID,19.269,VALID,118.0,VALID,0.0,
2019-03-20, 02:54:06,VALID,916.703,VALID,0.0,VALID,99.246,VALID,0.012,VALID,19.297,VALID,123.0,VALID,0.0,
2019-03-20, 02:55:06,VALID,916.708,VALID,0.0,VALID,99.246,VALID,0.01,VALID,19.279,VALID,114.0,VALID,0.0,
2019-03-20, 02:56:06,VALID,916.698,VALID,0.0,VALID,99.226,VALID,-0.002,VALID,19.233,VALID,112.0,VALID,0.0,
2019-03-20, 02:57:06,VALID,916.701,VALID,0.0,VALID,99.234,VALID,-0.005,VALID,19.22,VALID,118.0,VALID,0.0,
2019-03-20, 02:58:06,VALID,916.679,VALID,0.0,VALID,99.238,VALID,0.002,VALID,19.215,VALID,117.0,VALID,0.0,
2019-03-20, 02:59:06,VALID,916.675,VALID,0.0,VALID,99.222,VALID,0.006,VALID,19.192,VALID,117.0,VALID,0.0,
2019-03-20, 03:00:06,VALID,916.673,VALID,0.0,VALID,99.226,VALID,0.017,VALID,19.201,VALID,117.0,VALID,0.0,
2019-03-20, 03:01:06,VALID,916.654,VALID,0.0,VALID,99.244,VALID,0.036,VALID,19.194,VALID,117.0,VALID,0.0,
2019-03-20, 03:02:06,VALID,916.633,VALID,0.0,VALID,99.247,VALID,0.029,VALID,19.201,VALID,118.0,VALID,0.0,
2019-03-20, 03:03:06,VALID,916.617,VALID,0.0,VALID,99.238,VALID,0.015,VALID,19.212,VALID,113.0,VALID,0.0,
2019-03-20, 03:04:06,VALID,916.616,VALID,0.0,VALID,99.214,VALID,0.034,VALID,19.2,VALID,110.0,VALID,0.0,
2019-03-20, 03:05:06,VALID,916.622,VALID,0.0,VALID,99.177,VALID,0.02,VALID,19.166,VALID,111.0,VALID,0.0,
2019-03-20, 03:06:06,VALID,916.636,VALID,0.0,VALID,99.198,VALID,0.027,VALID,19.193,VALID,115.0,VALID,0.0,
2019-03-20, 03:07:06,VALID,916.644,VALID,0.0,VALID,99.207,VALID,0.019,VALID,19.205,VALID,116.0,VALID,0.0,
2019-03-20, 03:08:06,VALID,916.641,VALID,0.0,VALID,99.189,VALID,0.014,VALID,19.207,VALID,115.0,VALID,0.0,
2019-03-20, 03:09:06,VALID,916.605,VALID,0.0,VALID,99.174,VALID,0.007,VALID,19.215,VALID,119.0,VALID,0.0,
2019-03-20, 03:10:06,VALID,916.608,VALID,0.0,VALID,99.173,VALID,0.035,VALID,19.223,VALID,120.0,VALID,0.0,
2019-03-20, 03:11:06,VALID,916.602,VALID,0.0,VALID,99.166,VALID,0.016,VALID,19.213,VALID,116.0,VALID,0.0,
2019-03-20, 03:12:06,VALID,916.607,VALID,0.0,VALID,99.171,VALID,0.039,VALID,19.204,VALID,115.0,VALID,0.0,
2019-03-20, 03:13:06,VALID,916.598,VALID,0.0,VALID,99.161,VALID,0.039,VALID,19.208,VALID,118.0,VALID,0.0,
2019-03-20, 03:14:06,VALID,916.614,VALID,0.0,VALID,99.15,VALID,-0.004,VALID,19.187,VALID,111.0,VALID,0.0,
2019-03-20, 03:15:06,VALID,916.617,VALID,0.0,VALID,99.112,VALID,-0.001,VALID,19.162,VALID,107.0,VALID,0.0,
2019-03-20, 03:16:06,VALID,916.599,VALID,0.0,VALID,99.108,VALID,0.023,VALID,19.134,VALID,103.0,VALID,0.0,
2019-03-20, 03:17:06,VALID,916.603,VALID,0.0,VALID,99.102,VALID,0.018,VALID,19.101,VALID,104.0,VALID,0.0,
2019-03-20, 03:18:06,VALID,916.599,VALID,0.0,VALID,99.086,VALID,-0.002,VALID,19.083,VALID,104.0,VALID,0.0,
2019-03-20, 03:19:06,VALID,916.597,VALID,0.0,VALID,99.086,VALID,0.018,VALID,19.072,VALID,111.0,VALID,0.0,
2019-03-20, 03:20:06,VALID,916.58,VALID,0.0,VALID,99.05,VALID,0.004,VALID,19.061,VALID,108.0,VALID,0.0,
2019-03-20, 03:21:06,VALID,916.599,VALID,0.0,VALID,99.064,VALID,0.021,VALID,19.077,VALID,108.0,VALID,0.0,
2019-03-20, 03:22:06,VALID,916.589,VALID,0.0,VALID,99.098,VALID,0.026,VALID,19.113,VALID,114.0,VALID,0.0,
2019-03-20, 03:23:06,VALID,916.589,VALID,0.0,VALID,99.071,VALID,-0.002,VALID,19.105,VALID,118.0,VALID,0.0,
2019-03-20, 03:24:06,VALID,916.6,VALID,0.0,VALID,99.06,VALID,-0.004,VALID,19.081,VALID,108.0,VALID,0.0,
2019-03-20, 03:25:06,VALID,916.6,VALID,0.0,VALID,99.025,VALID,0.0,VALID,19.047,VALID,92.0,VALID,0.0,
2019-03-20, 03:26:06,VALID,916.595,VALID,0.0,VALID,98.978,VALID,0.013,VALID,18.97,VALID,79.0,VALID,0.0,
2019-03-20, 03:27:06,VALID,916.589,VALID,0.0,VALID,98.937,VALID,0.01,VALID,18.933,VALID,74.0,VALID,0.0,
2019-03-20, 03:28:06,VALID,916.58,VALID,0.0,VALID,98.94,VALID,-0.001,VALID,18.931,VALID,77.0,VALID,0.0,
2019-03-20, 03:29:06,VALID,916.573,VALID,0.0,VALID,98.955,VALID,0.029,VALID,18.975,VALID,82.0,VALID,0.0,
2019-03-20, 03:30:06,VALID,916.544,VALID,0.0,VALID,98.96,VALID,0.038,VALID,19.004,VALID,83.0,VALID,0.0,
2019-03-20, 03:31:06,VALID,916.555,VALID,0.0,VALID,98.961,VALID,0.04,VALID,19.025,VALID,89.0,VALID,0.0,
2019-03-20, 03:32:06,VALID,916.542,VALID,0.0,VALID,98.884,VALID,0.051,VALID,19.011,VALID,93.0,VALID,0.0,
2019-03-20, 03:33:06,VALID,916.545,VALID,0.0,VALID,98.856,VALID,0.043,VALID,19.001,VALID,89.0,VALID,0.0,
2019-03-20, 03:34:06,VALID,916.57,VALID,0.0,VALID,98.81,VALID,0.042,VALID,18.954,VALID,87.0,VALID,0.0,
2019-03-20, 03:35:06,VALID,916.578,VALID,0.0,VALID,98.759,VALID,0.032,VALID,18.918,VALID,90.0,VALID,0.0,
2019-03-20, 03:36:06,VALID,916.601,VALID,0.0,VALID,98.743,VALID,0.028,VALID,18.896,VALID,93.0,VALID,0.0,
2019-03-20, 03:37:06,VALID,916.613,VALID,0.0,VALID,98.71,VALID,0.02,VALID,18.851,VALID,105.0,VALID,0.0,
2019-03-20, 03:38:06,VALID,916.616,VALID,0.0,VALID,98.739,VALID,0.035,VALID,18.88,VALID,114.0,VALID,0.0,
2019-03-20, 03:39:06,VALID,916.643,VALID,0.0,VALID,98.747,VALID,0.037,VALID,18.885,VALID,118.0,VALID,0.0,
2019-03-20, 03:40:06,VALID,916.639,VALID,0.0,VALID,98.776,VALID,0.041,VALID,18.891,VALID,127.0,VALID,0.0,
2019-03-20, 03:41:06,VALID,916.638,VALID,0.0,VALID,98.847,VALID,0.035,VALID,18.935,VALID,123.0,VALID,0.0,
2019-03-20, 03:42:06,VALID,916.623,VALID,0.0,VALID,98.893,VALID,0.045,VALID,18.964,VALID,127.0,VALID,0.0,
2019-03-20, 03:43:06,VALID,916.598,VALID,0.0,VALID,98.955,VALID,0.041,VALID,19.0,VALID,121.0,VALID,0.0,